Flag for Canada Weather past 2 weeks in St. Albert, Alberta, Canada

Now
-2 °F

Clear.


Feels Like: -10 °F
Forecast: -8 / 9 °F
Wind: 3 mph from Southwest

Location: Edmonton Municipal

Current Time: Feb 1, 2015 at 8:15:49 AM

Latest Report: Feb 1, 2015 at 7:00 AM


Visibility: 9 mi

Pressure: 30.37 "Hg

Humidity: 77%

Dew point: -8 °F

Location of St. AlbertLocation

Historic Weather in St. Albert — Graph

°F

St. Albert temperature yesterday

Maximum temperature yesterday: 9 °F (at 4:00 PM)
Minimum temperature yesterday: 1 °F (at 6:02 AM)
Average temperature yesterday: 5 °F

Past Weeks' High & Low Weather Summary

 TemperatureHumidityPressure
High50 °F (Jan 22, 3:00 PM)100% (Jan 27, 5:00 AM)30.69 "Hg (Jan 27, 5:00 AM)
Low-2 °F (Feb 1, 5:00 AM)43% (Jan 22, 3:00 PM)29.54 "Hg (Jan 18, 1:00 PM)
Average29 °F73%30.05 "Hg
* Reported Jan 17 7:00 AM — Feb 1 7:00 AM, St. Albert, Weather by CustomWeather, © 2014

Note: Actual official high and low records may vary slightly from our data, if they occured in-between our weather recording intervals... More about our weather records

Advertising

St. Albert weather history for previous 24 hours

 ConditionsComfort  
Time TempWeatherWind HumidityBarometerVisibility
7:00 AM
Feb 1
-2 °FClear.3 mph77%30.37 "Hg9 mi
6:00 AM-2 °FClear.3 mph77%30.39 "Hg9 mi
5:00 AM-2 °FClear.3 mph84%30.40 "Hg9 mi
4:00 AM0 °FClear.3 mph78%30.42 "Hg9 mi
3:00 AM0 °FClear.5 mph84%30.46 "Hg9 mi
2:00 AM0 °FClear.5 mph84%30.48 "Hg9 mi
1:00 AM3 °FClear.2 mph78%30.49 "Hg9 mi
12:00 AM3 °FClear.6 mph78%30.52 "Hg9 mi
11:00 PM
Jan 31
5 °FClear.7 mph72%30.53 "Hg9 mi
10:00 PM5 °FOvercast.3 mph78%30.56 "Hg9 mi
9:01 PM7 °FLight snow. Overcast.2 mph78%30.41 "Hg2 mi
9:00 PM7 °FLight snow. Overcast.2 mph78%30.58 "Hg3 mi
8:58 PM7 °FLight snow. Overcast.3 mph78%30.41 "Hg3 mi
8:00 PM7 °FOvercast.5 mph72%30.59 "Hg7 mi
7:00 PM7 °FOvercast.6 mph72%30.60 "Hg9 mi
6:00 PM7 °FOvercast.7 mph72%30.61 "Hg9 mi
5:00 PM9 °FMostly cloudy.2 mph66%30.62 "Hg9 mi
4:00 PM9 °FMore clouds than sun.3 mph66%30.61 "Hg9 mi
3:00 PM7 °FOvercast.3 mph72%30.63 "Hg9 mi
2:00 PM7 °FOvercast.2 mph72%30.65 "Hg6 mi
1:00 PM7 °FPartly sunny.5 mph72%30.66 "Hg9 mi
12:00 PM5 °FOvercast.No wind72%30.67 "Hg9 mi
11:00 AM3 °FOvercast.2 mph78%30.69 "Hg4 mi
10:00 AM1 °FMostly cloudy.2 mph78%30.69 "Hg6 mi
9:00 AM1 °FOvercast.3 mph78%30.69 "Hg9 mi
8:00 AM1 °FPassing clouds.3 mph78%30.69 "Hg9 mi
Weather by CustomWeather, © 2014

See weather overviewHow to use our weather pages